Fort Wayne, IN

9:11 AM EDT on July 20, 2017 (GMT -0400)
Fort Wayne International

Weather History for KFWA - September, 2013

Change the Weather History Date:

Sunday, September 8, 2013

  Actual Average Record
Temperature  
Mean Temperature 69 °F 67 °F  
Max Temperature 77 °F 79 °F 96 °F (1922)
Min Temperature 61 °F 56 °F 39 °F (1986)
Degree Days  
Heating Degree Days 0 2  
Month to date heating degree days 2 9  
Since 1 July heating degree days 22 21  
Cooling Degree Days 4 4  
Month to date cooling degree days 27 36  
Year to date cooling degree days 756 753  
Growing Degree Days 19 (Base 50)    
Moisture  
Dew Point 64 °F    
Average Humidity 82    
Maximum Humidity 94    
Minimum Humidity 61    
Precipitation  
Precipitation T in 0.09 in 1.60 in (1942)
Month to date precipitation T 0.77  
Year to date precipitation 32.34 27.61  
Snow  
Snow 0.00 in 0.00 in 0.00 in (2002)
Month to date snowfall 0.0 0.0  
Since 1 July snowfall 0.0 0.0  
Since 1 September snowfall 0.0 0.0  
Snow Depth 0.00 in    
Sea Level Pressure  
Sea Level Pressure 30.01 in    
Wind  
Wind Speed 8 mph (ENE)    
Max Wind Speed 20 mph    
Max Gust Speed 33 mph    
Visibility 7 miles    
Events Fog , Rain    
T = Trace of Precipitation, MM = Missing Value Source: NWS Daily Summary

Daily Weather History Graph

Daily Weather History Graph

Search for Another Location

Airport or City:

Trip Planner

Search our weather history database for the weather conditions in past years. The results will help you decide how hot, cold, wet, or windy it might be!

Date:

Astronomy

Sep. 08, 2013 Rise Set
Actual Time 7:14 AM EDT 8:01 PM EDT
Civil Twilight 6:46 AM EDT 8:29 PM EDT
Nautical Twilight 6:13 AM EDT 9:01 PM EDT
Astronomical Twilight 5:39 AM EDT 9:36 PM EDT
Moon 10:33 AM EDT (9/8) 9:34 PM EDT (9/8)
Length of Visible Light 13h 42m
Length of Day
12h 46m
Waxing Crescent, 11% of the Moon is Illuminated
Sep 8
Waxing Crescent
Sep 12
First Quarter
Sep 19
Full
Sep 26
Last Quarter
Oct 4
New

Hourly Weather History & Observations

Time (EDT) Temp. Dew Point Humidity Pressure Visibility Wind Dir Wind Speed Gust Speed Precip Events Conditions
12:54 AM 70.0 °F 66.0 °F 87% 29.96 in 10.0 mi Calm Calm - N/A   Mostly Cloudy
1:54 AM 68.0 °F 64.9 °F 90% 29.95 in 10.0 mi Calm Calm - N/A   Partly Cloudy
2:54 AM 66.0 °F 63.0 °F 90% 29.95 in 10.0 mi SSW 3.5 mph - N/A   Partly Cloudy
3:54 AM 64.9 °F 62.1 °F 90% 29.94 in 10.0 mi SW 3.5 mph - N/A   Partly Cloudy
4:54 AM 64.0 °F 62.1 °F 93% 29.95 in 8.0 mi Calm Calm - N/A Fog Shallow Fog
5:54 AM 63.0 °F 61.0 °F 93% 29.96 in 8.0 mi Calm Calm - N/A Fog Shallow Fog
6:54 AM 62.1 °F 60.1 °F 93% 29.99 in 7.0 mi Calm Calm - N/A Fog Patches of Fog
7:54 AM 64.0 °F 62.1 °F 93% 30.00 in 7.0 mi NE 3.5 mph - N/A   Partly Cloudy
8:54 AM 69.1 °F 64.9 °F 87% 30.01 in 4.0 mi ENE 11.5 mph - N/A   Partly Cloudy
8:59 AM 69.8 °F 64.4 °F 83% 30.03 in 4.0 mi NE 16.1 mph 19.6 mph N/A   Mostly Cloudy
9:32 AM 69.8 °F 66.2 °F 88% 30.03 in 4.0 mi ENE 11.5 mph - N/A   Mostly Cloudy
9:54 AM 71.1 °F 66.0 °F 84% 30.02 in 6.0 mi ENE 11.5 mph 33.4 mph N/A   Haze
10:33 AM 71.6 °F 66.2 °F 83% 30.04 in 6.0 mi ENE 12.7 mph - N/A   Haze
10:54 AM 73.0 °F 66.0 °F 79% 30.03 in 6.0 mi ENE 11.5 mph - N/A   Haze
11:10 AM 73.4 °F 66.2 °F 78% 30.05 in 6.0 mi ENE 11.5 mph - N/A   Haze
11:54 AM 73.9 °F 66.9 °F 79% 30.03 in 6.0 mi East 10.4 mph - N/A   Haze
12:54 PM 73.9 °F 66.9 °F 79% 30.04 in 5.0 mi ENE 12.7 mph - N/A   Haze
1:54 PM 72.0 °F 66.0 °F 81% 30.04 in 5.0 mi ENE 13.8 mph - N/A   Haze
2:07 PM 71.6 °F 66.2 °F 83% 30.06 in 4.0 mi ENE 17.3 mph 21.9 mph N/A   Overcast
2:09 PM 69.8 °F 66.2 °F 88% 30.06 in 2.5 mi NE 17.3 mph 21.9 mph 0.00 in Rain Light Rain
2:20 PM 68.0 °F 66.2 °F 94% 30.06 in 1.8 mi ENE 11.5 mph - 0.00 in   Overcast
2:38 PM 69.8 °F 66.2 °F 88% 30.06 in 2.5 mi ENE 11.5 mph - 0.00 in   Overcast
2:46 PM 69.8 °F 66.2 °F 88% 30.06 in 4.0 mi ENE 12.7 mph - 0.00 in   Overcast
2:54 PM 70.0 °F 64.9 °F 84% 30.05 in 4.0 mi ENE 11.5 mph - 0.00 in   Haze
3:44 PM 73.4 °F 64.4 °F 73% 30.04 in 5.0 mi ENE 15.0 mph - N/A   Haze
3:54 PM 73.0 °F 64.9 °F 76% 30.03 in 5.0 mi ENE 10.4 mph - N/A   Haze
4:54 PM 75.0 °F 64.0 °F 69% 30.01 in 7.0 mi ENE 12.7 mph - N/A   Overcast
5:54 PM 75.0 °F 64.0 °F 69% 30.00 in 10.0 mi East 13.8 mph - N/A   Mostly Cloudy
6:54 PM 73.0 °F 63.0 °F 71% 30.01 in 10.0 mi East 13.8 mph - N/A   Mostly Cloudy
7:54 PM 71.1 °F 62.1 °F 73% 30.01 in 10.0 mi East 10.4 mph - N/A   Mostly Cloudy
8:54 PM 68.0 °F 62.1 °F 81% 30.03 in 10.0 mi East 5.8 mph - N/A   Mostly Cloudy
9:54 PM 66.9 °F 61.0 °F 81% 30.02 in 10.0 mi East 9.2 mph - N/A   Mostly Cloudy
10:54 PM 66.0 °F 60.1 °F 81% 30.03 in 10.0 mi ESE 9.2 mph - N/A   Mostly Cloudy
11:54 PM 64.9 °F 57.0 °F 75% 30.03 in 10.0 mi East 10.4 mph - N/A   Mostly Cloudy